Time,TemperatureF,DewpointF,PressureIn,WindDirection,WindDirectionDegrees,WindSpeedMPH,WindSpeedGustMPH,Humidity,HourlyPrecipIn,Conditions,Clouds,dailyrainin,SoftwareType,DateUTC
2013-01-08 00:05:00,24.3,22.0,30.44,ENE,70,0.0,1.0,91,0.00,,,0.00,weatherlink.com 1.10,2013-01-08 05:05:00,
2013-01-08 00:20:00,24.2,22.0,30.43,East,80,1.0,1.0,91,0.00,,,0.00,weatherlink.com 1.10,2013-01-08 05:20:00,
2013-01-08 00:35:00,24.1,22.0,30.43,East,101,0.0,1.0,91,0.00,,,0.00,weatherlink.com 1.10,2013-01-08 05:35:00,
2013-01-08 00:50:00,24.1,22.0,30.43,ESE,118,0.0,2.0,91,0.00,,,0.00,weatherlink.com 1.10,2013-01-08 05:50:00,
2013-01-08 01:05:00,24.1,22.0,30.43,South,187,0.0,1.0,91,0.00,,,0.00,weatherlink.com 1.10,2013-01-08 06:05:00,
2013-01-08 01:20:00,27.4,25.0,30.43,South,190,0.0,5.0,92,0.00,,,0.00,weatherlink.com 1.10,2013-01-08 06:20:00,
2013-01-08 01:35:00,27.2,24.0,30.43,SSE,152,0.0,2.0,88,0.00,,,0.00,weatherlink.com 1.10,2013-01-08 06:35:00,
2013-01-08 01:50:00,27.6,25.0,30.42,NNE,18,1.0,2.0,88,0.00,,,0.00,weatherlink.com 1.10,2013-01-08 06:50:00,
2013-01-08 02:05:00,30.1,26.0,30.42,NW,307,0.0,3.0,86,0.00,,,0.00,weatherlink.com 1.10,2013-01-08 07:05:00,
2013-01-08 02:20:00,31.0,26.0,30.41,ENE,68,1.0,3.0,81,0.00,,,0.00,weatherlink.com 1.10,2013-01-08 07:20:00,
2013-01-08 02:35:00,29.0,25.0,30.41,WSW,242,2.0,2.0,85,0.00,,,0.00,weatherlink.com 1.10,2013-01-08 07:35:00,
2013-01-08 02:50:00,30.7,26.0,30.41,WSW,245,1.0,3.0,84,0.00,,,0.00,weatherlink.com 1.10,2013-01-08 07:50:00,
2013-01-08 03:05:00,33.3,27.0,30.41,WSW,250,1.0,5.0,79,0.00,,,0.00,weatherlink.com 1.10,2013-01-08 08:05:00,
2013-01-08 03:20:00,33.7,27.0,30.41,NW,319,1.0,6.0,77,0.00,,,0.00,weatherlink.com 1.10,2013-01-08 08:20:00,
2013-01-08 03:35:00,33.4,27.0,30.41,SW,226,2.0,7.0,78,0.00,,,0.00,weatherlink.com 1.10,2013-01-08 08:35:00,
2013-01-08 03:50:00,33.0,27.0,30.41,NW,321,1.0,4.0,79,0.00,,,0.00,weatherlink.com 1.10,2013-01-08 08:50:00,
2013-01-08 04:05:00,31.7,27.0,30.41,SW,229,1.0,2.0,81,0.00,,,0.00,weatherlink.com 1.10,2013-01-08 09:05:00,
2013-01-08 04:20:00,32.0,27.0,30.41,NNE,13,1.0,2.0,82,0.00,,,0.00,weatherlink.com 1.10,2013-01-08 09:20:00,
2013-01-08 04:35:00,31.5,26.0,30.41,SW,226,0.0,2.0,79,0.00,,,0.00,weatherlink.com 1.10,2013-01-08 09:35:00,
2013-01-08 04:50:00,29.6,25.0,30.42,North,353,1.0,1.0,83,0.00,,,0.00,weatherlink.com 1.10,2013-01-08 09:50:00,
2013-01-08 05:05:00,28.7,25.0,30.42,SSW,193,0.0,1.0,86,0.00,,,0.00,weatherlink.com 1.10,2013-01-08 10:05:00,
2013-01-08 05:20:00,29.1,25.0,30.42,SSE,147,0.0,1.0,86,0.00,,,0.00,weatherlink.com 1.10,2013-01-08 10:20:00,
2013-01-08 05:35:00,30.4,26.0,30.43,West,276,0.0,4.0,85,0.00,,,0.00,weatherlink.com 1.10,2013-01-08 10:35:00,
2013-01-08 05:50:00,30.8,26.0,30.43,NE,41,0.0,3.0,82,0.00,,,0.00,weatherlink.com 1.10,2013-01-08 10:50:00,
2013-01-08 06:05:00,32.0,27.0,30.42,East,89,2.0,5.0,81,0.00,,,0.00,weatherlink.com 1.10,2013-01-08 11:05:00,
2013-01-08 06:20:00,32.1,27.0,30.42,North,359,0.0,3.0,81,0.00,,,0.00,weatherlink.com 1.10,2013-01-08 11:20:00,
2013-01-08 06:35:00,32.3,27.0,30.42,West,262,0.0,2.0,80,0.00,,,0.00,weatherlink.com 1.10,2013-01-08 11:35:00,
2013-01-08 06:50:00,32.5,27.0,30.43,West,277,1.0,2.0,80,0.00,,,0.00,weatherlink.com 1.10,2013-01-08 11:50:00,
2013-01-08 07:05:00,32.7,27.0,30.44,SW,229,1.0,4.0,79,0.00,,,0.00,weatherlink.com 1.10,2013-01-08 12:05:00,
2013-01-08 07:20:00,32.9,27.0,30.44,ENE,57,2.0,4.0,80,0.00,,,0.00,weatherlink.com 1.10,2013-01-08 12:20:00,
2013-01-08 07:35:00,33.3,27.0,30.44,WNW,293,0.0,5.0,79,0.00,,,0.00,weatherlink.com 1.10,2013-01-08 12:35:00,
2013-01-08 07:50:00,33.4,28.0,30.44,SE,129,1.0,6.0,79,0.00,,,0.00,weatherlink.com 1.10,2013-01-08 12:50:00,
2013-01-08 08:05:00,34.0,28.0,30.44,ENE,64,4.0,6.0,79,0.00,,,0.00,weatherlink.com 1.10,2013-01-08 13:05:00,
2013-01-08 08:20:00,34.6,28.0,30.44,South,179,1.0,6.0,78,0.00,,,0.00,weatherlink.com 1.10,2013-01-08 13:20:00,
2013-01-08 08:35:00,35.1,29.0,30.44,WSW,249,0.0,6.0,78,0.00,,,0.00,weatherlink.com 1.10,2013-01-08 13:35:00,
2013-01-08 08:50:00,35.6,29.0,30.45,West,279,3.0,5.0,78,0.00,,,0.00,weatherlink.com 1.10,2013-01-08 13:50:00,
2013-01-08 09:20:00,36.7,30.0,30.44,West,270,1.0,8.0,77,0.00,,,0.00,weatherlink.com 1.10,2013-01-08 14:20:00,
2013-01-08 09:35:00,37.3,30.0,30.44,West,268,2.0,4.0,76,0.00,,,0.00,weatherlink.com 1.10,2013-01-08 14:35:00,
2013-01-08 09:50:00,38.6,31.0,30.44,West,262,1.0,5.0,74,0.00,,,0.00,weatherlink.com 1.10,2013-01-08 14:50:00,
2013-01-08 10:06:00,39.9,32.0,30.45,SW,234,3.0,4.0,74,0.00,,,0.00,weatherlink.com 1.10,2013-01-08 15:06:00,
2013-01-08 10:21:00,39.9,32.0,30.44,West,273,2.0,9.0,73,0.00,,,0.00,weatherlink.com 1.10,2013-01-08 15:21:00,
2013-01-08 10:36:00,40.0,32.0,30.43,West,276,3.0,6.0,72,0.00,,,0.00,weatherlink.com 1.10,2013-01-08 15:36:00,
2013-01-08 10:51:00,41.1,33.0,30.43,WSW,253,2.0,3.0,72,0.00,,,0.00,weatherlink.com 1.10,2013-01-08 15:51:00,
2013-01-08 11:06:00,41.7,33.0,30.43,West,267,1.0,4.0,71,0.00,,,0.00,weatherlink.com 1.10,2013-01-08 16:06:00,
2013-01-08 11:21:00,42.2,33.0,30.43,West,260,1.0,3.0,70,0.00,,,0.00,weatherlink.com 1.10,2013-01-08 16:21:00,
2013-01-08 11:36:00,42.6,33.0,30.43,WNW,295,2.0,4.0,69,0.00,,,0.00,weatherlink.com 1.10,2013-01-08 16:36:00,
2013-01-08 12:06:00,44.4,34.0,30.41,West,262,0.0,3.0,67,0.00,,,0.00,weatherlink.com 1.10,2013-01-08 17:06:00,
2013-01-08 12:21:00,45.5,34.0,30.41,WSW,238,3.0,4.0,65,0.00,,,0.00,weatherlink.com 1.10,2013-01-08 17:21:00,
2013-01-08 12:36:00,45.8,34.0,30.41,SW,229,2.0,5.0,64,0.00,,,0.00,weatherlink.com 1.10,2013-01-08 17:36:00,
2013-01-08 12:51:00,46.3,35.0,30.41,WSW,239,2.0,3.0,64,0.00,,,0.00,weatherlink.com 1.10,2013-01-08 17:51:00,
2013-01-08 13:06:00,47.2,34.0,30.40,WSW,251,2.0,6.0,61,0.00,,,0.00,weatherlink.com 1.10,2013-01-08 18:06:00,
2013-01-08 13:21:00,48.4,34.0,30.40,SSW,203,1.0,5.0,58,0.00,,,0.00,weatherlink.com 1.10,2013-01-08 18:21:00,
2013-01-08 13:36:00,48.5,34.0,30.40,West,266,2.0,3.0,58,0.00,,,0.00,weatherlink.com 1.10,2013-01-08 18:36:00,
2013-01-08 13:51:00,48.4,34.0,30.40,SE,136,1.0,3.0,59,0.00,,,0.00,weatherlink.com 1.10,2013-01-08 18:51:00,
2013-01-08 14:06:00,47.7,33.0,30.40,West,281,0.0,3.0,57,0.00,,,0.00,weatherlink.com 1.10,2013-01-08 19:06:00,
2013-01-08 14:21:00,48.1,33.0,30.40,WSW,253,1.0,3.0,57,0.00,,,0.00,weatherlink.com 1.10,2013-01-08 19:21:00,
2013-01-08 14:36:00,48.9,34.0,30.41,West,281,3.0,6.0,57,0.00,,,0.00,weatherlink.com 1.10,2013-01-08 19:36:00,
2013-01-08 14:51:00,49.8,34.0,30.41,West,281,2.0,3.0,54,0.00,,,0.00,weatherlink.com 1.10,2013-01-08 19:51:00,
2013-01-08 15:06:00,50.3,34.0,30.42,West,263,1.0,3.0,53,0.00,,,0.00,weatherlink.com 1.10,2013-01-08 20:06:00,
2013-01-08 15:21:00,50.3,34.0,30.42,SSW,208,1.0,1.0,54,0.00,,,0.00,weatherlink.com 1.10,2013-01-08 20:21:00,
2013-01-08 15:36:00,50.4,33.0,30.41,SSW,207,1.0,3.0,52,0.00,,,0.00,weatherlink.com 1.10,2013-01-08 20:36:00,
2013-01-08 15:51:00,51.3,34.0,30.41,South,181,0.0,1.0,51,0.00,,,0.00,weatherlink.com 1.10,2013-01-08 20:51:00,
2013-01-08 16:06:00,50.3,33.0,30.41,SSE,149,0.0,1.0,51,0.00,,,0.00,weatherlink.com 1.10,2013-01-08 21:06:00,
2013-01-08 16:21:00,50.0,33.0,30.42,SSE,149,0.0,0.0,53,0.00,,,0.00,weatherlink.com 1.10,2013-01-08 21:21:00,
2013-01-08 16:36:00,48.5,33.0,30.42,SSE,149,0.0,1.0,55,0.00,,,0.00,weatherlink.com 1.10,2013-01-08 21:36:00,
2013-01-08 16:51:00,44.9,32.0,30.41,SSE,149,0.0,1.0,61,0.00,,,0.00,weatherlink.com 1.10,2013-01-08 21:51:00,
2013-01-08 17:06:00,42.4,32.0,30.42,SE,146,0.0,1.0,66,0.00,,,0.00,weatherlink.com 1.10,2013-01-08 22:06:00,
2013-01-08 17:21:00,40.7,31.0,30.42,SE,142,0.0,1.0,69,0.00,,,0.00,weatherlink.com 1.10,2013-01-08 22:21:00,
2013-01-08 17:36:00,39.3,31.0,30.43,East,101,0.0,1.0,73,0.00,,,0.00,weatherlink.com 1.10,2013-01-08 22:36:00,
2013-01-08 17:51:00,37.4,31.0,30.43,East,89,0.0,1.0,78,0.00,,,0.00,weatherlink.com 1.10,2013-01-08 22:51:00,
2013-01-08 18:06:00,35.9,31.0,30.43,ESE,103,1.0,1.0,81,0.00,,,0.00,weatherlink.com 1.10,2013-01-08 23:06:00,
2013-01-08 18:21:00,34.7,30.0,30.42,East,97,1.0,1.0,82,0.00,,,0.00,weatherlink.com 1.10,2013-01-08 23:21:00,
2013-01-08 18:36:00,34.0,30.0,30.42,East,98,0.0,1.0,84,0.00,,,0.00,weatherlink.com 1.10,2013-01-08 23:36:00,
2013-01-08 18:51:00,32.9,29.0,30.42,East,85,1.0,2.0,85,0.00,,,0.00,weatherlink.com 1.10,2013-01-08 23:51:00,
2013-01-08 19:06:00,31.9,28.0,30.43,East,84,1.0,1.0,86,0.00,,,0.00,weatherlink.com 1.10,2013-01-09 00:06:00,
2013-01-08 19:21:00,31.6,28.0,30.43,East,87,1.0,1.0,87,0.00,,,0.00,weatherlink.com 1.10,2013-01-09 00:21:00,
2013-01-08 19:37:00,30.9,28.0,30.42,ENE,65,0.0,1.0,87,0.00,,,0.00,weatherlink.com 1.10,2013-01-09 00:37:00,
2013-01-08 19:52:00,31.1,28.0,30.42,NE,49,2.0,2.0,89,0.00,,,0.00,weatherlink.com 1.10,2013-01-09 00:52:00,
2013-01-08 20:22:00,30.2,27.0,30.42,SSW,198,0.0,0.0,88,0.00,,,0.00,weatherlink.com 1.10,2013-01-09 01:22:00,
2013-01-08 20:36:00,30.2,27.0,30.42,ESE,113,0.0,1.0,88,0.00,,,0.00,weatherlink.com 1.10,2013-01-09 01:36:00,
2013-01-08 20:51:00,29.8,27.0,30.41,ESE,103,1.0,1.0,88,0.00,,,0.00,weatherlink.com 1.10,2013-01-09 01:51:00,
2013-01-08 21:06:00,29.7,27.0,30.42,East,93,1.0,2.0,89,0.00,,,0.00,weatherlink.com 1.10,2013-01-09 02:06:00,
2013-01-08 21:21:00,29.3,27.0,30.43,East,93,0.0,1.0,89,0.00,,,0.00,weatherlink.com 1.10,2013-01-09 02:21:00,
2013-01-08 21:36:00,29.3,27.0,30.43,East,94,0.0,0.0,89,0.00,,,0.00,weatherlink.com 1.10,2013-01-09 02:36:00,
2013-01-08 21:51:00,28.9,26.0,30.43,East,94,0.0,0.0,89,0.00,,,0.00,weatherlink.com 1.10,2013-01-09 02:51:00,
2013-01-08 22:06:00,29.0,27.0,30.44,East,93,0.0,0.0,90,0.00,,,0.00,weatherlink.com 1.10,2013-01-09 03:06:00,
2013-01-08 22:21:00,28.5,26.0,30.45,East,93,0.0,0.0,90,0.00,,,0.00,weatherlink.com 1.10,2013-01-09 03:21:00,
2013-01-08 22:36:00,28.4,26.0,30.44,East,93,0.0,0.0,90,0.00,,,0.00,weatherlink.com 1.10,2013-01-09 03:36:00,
2013-01-08 22:51:00,28.3,26.0,30.43,East,93,0.0,0.0,90,0.00,,,0.00,weatherlink.com 1.10,2013-01-09 03:51:00,
2013-01-08 23:07:00,28.2,26.0,30.43,East,91,0.0,0.0,91,0.00,,,0.00,weatherlink.com 1.10,2013-01-09 04:07:00,
2013-01-08 23:21:00,27.8,25.0,30.43,East,91,0.0,0.0,90,0.00,,,0.00,weatherlink.com 1.10,2013-01-09 04:21:00,
2013-01-08 23:36:00,27.3,25.0,30.43,East,91,0.0,0.0,90,0.00,,,0.00,weatherlink.com 1.10,2013-01-09 04:36:00,
2013-01-08 23:51:00,27.0,25.0,30.43,East,91,0.0,0.0,91,0.00,,,0.00,weatherlink.com 1.10,2013-01-09 04:51:00,